Showing default

COSMOS 2118, 21032

Orbit data source: Space-Track

COSMOS 2118, 21032 is a payload satellite owned by UNKS (CIS) in LEO that was launched on Sat, 22 Dec 1990 UTC via a TSIKLON-3 launch vehicle from the Plesetsk Missile And Space Complex (PKMTR). Payload-class satellites include a variety of spacecraft equipped with specific instruments for various scientific and technological missions. These include communications satellites like Starlink; space stations such as the ISS; scientific satellites like the Hubble; Earth observation satellites from companies like Planet Labs, Umbra, and HawkEye 360; GPS; miniature CubeSats for education and research; and military/defense satellites.

Loading next visibility...
Identifier
21032, 1990-114E
Orbit
LEO
Last TLE update
20 hours ago
Origin
Manufacturer
NPO PM
Mission
Defense Communications
Bus & Motor
STRELA-3, Unknown motor
Mass
225 kg wet, 225 kg dry
Launch date (UTC)
1990-12-22 (35 years ago)
Launch vehicle
TSIKLON-3
Launch site
Plesetsk Missile And Space Complex (PKMTR)
Object type
Payload
Rocket body
Debris
Shape & HBR
Cyl, 1.6 m
Radar Cross Section
1.257 m², Large (>1 m²)

Expand to show TLE details & history

TLE from 20 hours ago
0 COSMOS 2118
1 21032U 90114E   25191.63857066  .00000036  00000-0  13376-3 0  9994
2 21032  82.5652  38.3080 0011968  91.4789 268.7675 12.65545524595732
Epoch: 2025-07-10T15:19Z
TLE epoch observation values (Epoch: 2025-07-10T15:19:32.505Z)
Latitude
0.00001°
Longitude
-120.37941°
Altitude
1,403.084 km
Speed
7.158 km/s
True Right ascension
02h 33m 13s
True Declination
0° 00' 00"
Sunlit
Object was in daylight at epoch
Visualization orbit readout
Latitude
38.96335°
Longitude
53.06466°
Altitude
1,399.641 km
Speed
7.166 km/s
Apparent Right ascension
12h 52m 51s
Apparent Declination
4° 27' 23"
Sunlit
Object is in daylight
Visualization observer readout
Local Sidereal Time
23:20:19
Azimuth
328.842° NNW
Elevation
-40.792°
Doppler factor
1
Orbital elements
Apogee altitude
1,406.761 km
Perigee altitude
1,388.149 km
Semi-major axis
7,775.592 km
Eccentricity
0.0012
Inclination
82.5652°
RAAN
38.308°
Arg. of periapsis
91.4789°
True anomaly
Unknown
Mean anomaly
268.7675°
Eccentric anomaly
Unknown
Mean motion
3.1655 °/min
Orbital period
113.73 mins
BSTAR
0.00013376
Loading maneuver chart data...
Loading SW <> Apogee altitude chart data...
Loading historical data...
Loading historical data...
Loading historical data...
Loading historical data...
Loading historical data...
Loading historical data...
Loading historical data...

COSMOS 2118 Visibility forecast

Observer location: undefined°, undefined°

Span
Click to sort rows by Start time (UTC) header in descending order
Start Az.
Max El. time (UTC)
Max El. Az.
Max El.
End time (UTC)
End Az.
15 mins2025-07-11 14:11:20.870Z173.266° S2025-07-11 14:18:20.870Z88.602° E43.285°2025-07-11 14:26:20.870Z12.248° NNE
10 mins2025-07-11 16:09:20.870Z254.008° W2025-07-11 16:13:20.870Z289.371° WNW21.72°2025-07-11 16:19:20.870Z340.017° N
12 mins2025-07-12 00:12:20.870Z20.937° NNE2025-07-12 00:17:20.870Z65.452° ENE24.523°2025-07-12 00:24:20.870Z124.088° SE
14 mins2025-07-12 02:06:20.870Z342.897° N2025-07-12 02:13:20.870Z253.171° W40.997°2025-07-12 02:20:20.870Z191.772° SSW
|